When you browse on this site, cookies collect data to enhance your experience and personalize the content and advertising you see.
Visit our Privacy Policy to learn more. By continuing to use the site, you agree to this use of cookies and data.
  • En España
  • Lista de países
  • Para 7 días
  • Temperatura del agua
  • El tiempo en el mapa
  • Informadores
  • user-avatar
    Iniciar sesión

    Tiempo cada hora Sada

    Hoy, 21 Septiembre, Sábado

    Tiempo Temperatura Precipitaciones Viento Presión Humedad
    00:00 +20°C° 0 mm 4 mps 570 mmHg 34%
    01:00 +19°C° 0 mm 4 mps 570 mmHg 33%
    02:00 +18°C° 0 mm 4 mps 569 mmHg 33%
    03:00 +18°C° 0 mm 3 mps 569 mmHg 34%
    04:00 +17°C° 0 mm 3 mps 569 mmHg 33%
    05:00 +17°C° 0 mm 3 mps 569 mmHg 32%
    06:00 +17°C° 0 mm 4 mps 569 mmHg 32%
    07:00 +18°C° 0 mm 4 mps 570 mmHg 28%
    08:00 +20°C° 0 mm 5 mps 571 mmHg 24%
    09:00 +22°C° 0 mm 6 mps 572 mmHg 21%
    10:00 +23°C° 0 mm 6 mps 572 mmHg 19%
    11:00 +24°C° 0 mm 6 mps 573 mmHg 16%
    12:00 +27°C° 0 mm 6 mps 573 mmHg 13%
    13:00 +27°C° 0 mm 5 mps 572 mmHg 14%
    14:00 +27°C° 0 mm 5 mps 572 mmHg 15%
    15:00 +27°C° 0 mm 5 mps 572 mmHg 15%
    16:00 +26°C° 0 mm 5 mps 571 mmHg 20%
    17:00 +23°C° 0 mm 4 mps 571 mmHg 24%
    18:00 +22°C° 0 mm 4 mps 570 mmHg 29%
    19:00 +21°C° 0 mm 4 mps 570 mmHg 30%
    20:00 +20°C° 0 mm 3 mps 570 mmHg 32%
    21:00 +19°C° 0 mm 2 mps 570 mmHg 34%
    22:00 +19°C° 0 mm 2 mps 570 mmHg 31%
    23:00 +19°C° 0 mm 2 mps 570 mmHg 29%

    Mañana, 22 Septiembre, Domingo

    Tiempo Temperatura Precipitaciones Viento Presión Humedad
    00:00 +18°C° 0 mm 2 mps 570 mmHg 27%
    01:00 +18°C° 0 mm 2 mps 569 mmHg 27%
    02:00 +17°C° 0 mm 2 mps 569 mmHg 27%
    03:00 +18°C° 0 mm 1 mps 568 mmHg 27%
    04:00 +16°C° 0 mm 1 mps 568 mmHg 28%
    05:00 +16°C° 0 mm 1 mps 568 mmHg 29%
    06:00 +16°C° 0 mm 1 mps 569 mmHg 30%
    07:00 +19°C° 0 mm 1 mps 570 mmHg 28%
    08:00 +20°C° 0 mm 2 mps 571 mmHg 26%
    09:00 +23°C° 0 mm 2 mps 572 mmHg 24%
    10:00 +24°C° 0 mm 3 mps 572 mmHg 22%
    11:00 +25°C° 0 mm 5 mps 573 mmHg 20%
    12:00 +26°C° 0 mm 6 mps 573 mmHg 18%
    13:00 +26°C° 0 mm 6 mps 573 mmHg 19%
    14:00 +26°C° 0 mm 5 mps 572 mmHg 20%
    15:00 +27°C° 0 mm 5 mps 572 mmHg 21%
    16:00 +25°C° 0.1 mm 4 mps 571 mmHg 26%
    17:00 +24°C° 0.1 mm 3 mps 571 mmHg 31%
    18:00 +23°C° 0.1 mm 2 mps 570 mmHg 37%
    19:00 +21°C° 0 mm 2 mps 570 mmHg 42%
    20:00 +21°C° 0 mm 1 mps 570 mmHg 48%
    21:00 +20°C° 0 mm 1 mps 570 mmHg 53%
    22:00 +18°C° 0 mm 0 mps 570 mmHg 52%
    23:00 +18°C° 0 mm 0 mps 570 mmHg 51%

    Pasado mañana, 23 Septiembre, Lunes

    Tiempo Temperatura Precipitaciones Viento Presión Humedad
    00:00 +17°C° 0 mm 0 mps 570 mmHg 51%
    01:00 +17°C° 0 mm 0 mps 569 mmHg 50%
    02:00 +17°C° 0 mm 0 mps 569 mmHg 49%
    03:00 +16°C° 0 mm 0 mps 568 mmHg 48%
    04:00 +16°C° 0 mm 0 mps 568 mmHg 48%
    05:00 +15°C° 0 mm 0 mps 568 mmHg 49%
    06:00 +15°C° 0 mm 0 mps 569 mmHg 49%
    07:00 +17°C° 0 mm 0 mps 570 mmHg 43%
    08:00 +21°C° 0 mm 1 mps 571 mmHg 36%
    09:00 +23°C° 0 mm 1 mps 572 mmHg 30%
    10:00 +24°C° 0 mm 2 mps 572 mmHg 28%
    11:00 +25°C° 0 mm 2 mps 572 mmHg 26%
    12:00 +26°C° 0 mm 3 mps 572 mmHg 23%
    13:00 +26°C° 0 mm 3 mps 572 mmHg 24%
    14:00 +26°C° 0 mm 3 mps 571 mmHg 26%
    15:00 +26°C° 0 mm 3 mps 571 mmHg 27%
    16:00 +25°C° 0 mm 3 mps 571 mmHg 32%
    17:00 +24°C° 0 mm 3 mps 570 mmHg 37%
    18:00 +21°C° 0 mm 2 mps 570 mmHg 43%
    19:00 +21°C° 0 mm 2 mps 570 mmHg 46%
    20:00 +21°C° 0 mm 1 mps 570 mmHg 49%
    21:00 +21°C° 0 mm 1 mps 570 mmHg 52%
    22:00 +20°C° 0 mm 1 mps 570 mmHg 49%
    23:00 +20°C° 0 mm 1 mps 570 mmHg 47%

    24 Septiembre, Martes

    Tiempo Temperatura Precipitaciones Viento Presión Humedad
    00:00 +18°C° 0 mm 0 mps 570 mmHg 44%
    01:00 +19°C° 0 mm 1 mps 569 mmHg 42%
    02:00 +19°C° 0 mm 1 mps 569 mmHg 40%
    03:00 +19°C° 0 mm 1 mps 569 mmHg 38%
    04:00 +19°C° 0 mm 1 mps 569 mmHg 36%
    05:00 +17°C° 0 mm 2 mps 569 mmHg 34%
    06:00 +17°C° 0 mm 2 mps 569 mmHg 32%
    07:00 +18°C° 0 mm 2 mps 570 mmHg 29%
    08:00 +20°C° 0 mm 2 mps 571 mmHg 27%
    09:00 +22°C° 0 mm 3 mps 572 mmHg 24%
    10:00 +24°C° 0 mm 3 mps 572 mmHg 22%
    11:00 +25°C° 0 mm 4 mps 572 mmHg 21%
    12:00 +26°C° 0 mm 4 mps 572 mmHg 19%
    13:00 +26°C° 0 mm 5 mps 572 mmHg 19%
    14:00 +27°C° 0 mm 5 mps 572 mmHg 20%
    15:00 +27°C° 0 mm 5 mps 571 mmHg 20%
    16:00 +26°C° 0 mm 5 mps 571 mmHg 24%
    17:00 +23°C° 0 mm 4 mps 570 mmHg 28%
    18:00 +22°C° 0 mm 4 mps 570 mmHg 32%
    19:00 +21°C° 0 mm 4 mps 570 mmHg 31%
    20:00 +21°C° 0 mm 5 mps 570 mmHg 30%
    21:00 +20°C° 0 mm 5 mps 570 mmHg 29%
    22:00 +19°C° 0 mm 4 mps 570 mmHg 28%
    23:00 +19°C° 0 mm 4 mps 570 mmHg 27%

    25 Septiembre, Miércoles

    Tiempo Temperatura Precipitaciones Viento Presión Humedad
    00:00 +18°C° 0 mm 4 mps 569 mmHg 26%
    01:00 +18°C° 0 mm 4 mps 569 mmHg 28%
    02:00 +17°C° 0 mm 4 mps 569 mmHg 29%
    03:00 +17°C° 0 mm 4 mps 568 mmHg 30%
    04:00 +17°C° 0 mm 4 mps 568 mmHg 31%
    05:00 +17°C° 0 mm 4 mps 569 mmHg 33%
    06:00 +15°C° 0 mm 4 mps 569 mmHg 34%
    07:00 +17°C° 0 mm 5 mps 570 mmHg 31%
    08:00 +20°C° 0 mm 6 mps 571 mmHg 29%
    09:00 +21°C° 0 mm 7 mps 572 mmHg 26%
    10:00 +22°C° 0 mm 6 mps 572 mmHg 24%
    11:00 +23°C° 0 mm 6 mps 572 mmHg 21%
    12:00 +26°C° 0 mm 6 mps 572 mmHg 19%
    13:00 +26°C° 0 mm 5 mps 572 mmHg 20%
    14:00 +26°C° 0 mm 5 mps 572 mmHg 21%
    15:00 +26°C° 0 mm 5 mps 571 mmHg 22%
    16:00 +25°C° 0 mm 5 mps 571 mmHg 27%
    17:00 +23°C° 0 mm 4 mps 571 mmHg 31%
    18:00 +21°C° 0 mm 4 mps 570 mmHg 35%
    19:00 +21°C° 0 mm 4 mps 570 mmHg 36%
    20:00 +20°C° 0 mm 4 mps 571 mmHg 37%
    21:00 +19°C° 0 mm 3 mps 571 mmHg 39%
    22:00 +19°C° 0 mm 3 mps 571 mmHg 38%
    23:00 +19°C° 0 mm 3 mps 570 mmHg 38%

    26 Septiembre, Jueves

    Tiempo Temperatura Precipitaciones Viento Presión Humedad
    00:00 +18°C° 0 mm 3 mps 570 mmHg 38%
    01:00 +18°C° 0 mm 3 mps 570 mmHg 39%
    02:00 +18°C° 0 mm 4 mps 570 mmHg 40%
    03:00 +18°C° 0 mm 4 mps 569 mmHg 41%
    04:00 +17°C° 0 mm 4 mps 570 mmHg 42%
    05:00 +17°C° 0 mm 4 mps 570 mmHg 43%
    06:00 +17°C° 0 mm 4 mps 570 mmHg 44%
    07:00 +17°C° 0 mm 5 mps 571 mmHg 41%
    08:00 +20°C° 0 mm 5 mps 572 mmHg 38%
    09:00 +21°C° 0 mm 6 mps 573 mmHg 34%
    10:00 +22°C° 0 mm 6 mps 573 mmHg 33%
    11:00 +23°C° 0 mm 6 mps 573 mmHg 31%
    12:00 +24°C° 0 mm 6 mps 573 mmHg 29%
    13:00 +24°C° 0 mm 6 mps 573 mmHg 30%
    14:00 +25°C° 0 mm 5 mps 572 mmHg 31%
    15:00 +23°C° 0 mm 5 mps 572 mmHg 32%
    16:00 +23°C° 0.1 mm 5 mps 571 mmHg 35%
    17:00 +22°C° 0.1 mm 5 mps 571 mmHg 38%
    18:00 +21°C° 0.1 mm 5 mps 571 mmHg 41%
    19:00 +21°C° 0 mm 4 mps 571 mmHg 42%
    20:00 +20°C° 0 mm 4 mps 571 mmHg 44%
    21:00 +19°C° 0 mm 3 mps 571 mmHg 45%
    22:00 +19°C° 0 mm 2 mps 571 mmHg 46%
    23:00 +18°C° 0 mm 2 mps 570 mmHg 46%
    Mostrar más